Location: *
(53.9002°N, 27.5624°E)
Time: 10:18:50
(UTC+00:00)

ARGOS - Pass Details

Date: 12 November 2019
Orbit: 819 x 835 km, 98.5° (Epoch: 09 December)

Event Time Altitude Azimuth Distance (km) Brightness Sun altitude
Exits shadow 17:18:18 35° 15° (NNE) 1,320 4.1 -26.6°
Drops below altitude 10° 17:21:41 10° 352° (N) 2,452 5.8 -27.1°
Sets 17:24:06 0° 348° (NNW) 3,387 6.6 -27.5°
